PST,Max TemperatureF,Mean TemperatureF,Min TemperatureF,Max Dew PointF,MeanDew PointF,Min DewpointF,Max Humidity, Mean Humidity, Min Humidity, Max Sea Level PressureIn, Mean Sea Level PressureIn, Min Sea Level PressureIn, Max VisibilityMiles, Mean VisibilityMiles, Min VisibilityMiles, Max Wind SpeedMPH, Mean Wind SpeedMPH, Max Gust SpeedMPH,PrecipitationIn, CloudCover, Events, WindDirDegrees
2013-1-1,26,22,17,19,18,14,84,76,68,30.65,30.57,30.42,10,8,2,10,2,12,0.00,8,,250
2013-1-2,29,24,18,19,18,14,84,74,63,30.64,30.58,30.44,10,10,6,7,1,9,0.00,5,,358
2013-1-3,29,22,14,18,14,9,88,76,63,30.51,30.44,30.38,10,9,5,7,0,8,0.00,1,,50
2013-1-4,30,25,20,24,20,16,84,74,63,30.46,30.41,30.34,10,10,7,5,1,8,0.00,8,,180
2013-1-5,36,32,27,26,24,21,78,71,64,30.43,30.30,30.18,10,8,2,9,1,13,T,6,Snow,254
2013-1-6,32,30,28,29,25,23,85,79,72,30.23,30.15,30.05,10,6,1,13,3,15,0.12,8,Snow,232
2013-1-7,41,37,32,34,31,28,89,80,70,30.09,29.96,29.83,10,4,0,16,5,21,0.55,7,Fog-Snow,230
2013-1-8,44,38,32,36,31,28,89,80,70,30.16,30.03,29.86,10,7,1,18,4,25,0.11,7,Snow,206
2013-1-9,48,42,35,34,31,28,76,63,49,29.86,29.73,29.62,10,10,10,24,13,38,T,5,,200
2013-1-10,35,32,28,28,24,21,85,77,69,29.92,29.84,29.76,10,6,0,12,4,14,0.08,7,Fog-Snow,233
2013-1-11,33,24,15,23,17,11,92,68,43,30.29,30.15,29.88,10,10,9,8,2,10,0.00,4,,226
2013-1-12,24,19,14,18,15,10,84,78,71,30.38,30.32,30.21,10,9,6,10,2,13,0.00,6,,298
2013-1-13,25,20,15,15,13,11,88,75,62,30.50,30.42,30.30,10,7,2,10,2,10,T,7,Snow,176
2013-1-14,26,23,20,21,18,12,88,80,71,30.50,30.41,30.32,10,6,1,8,2,9,0.06,8,Snow,90
2013-1-15,32,26,20,27,21,16,92,82,72,30.65,30.56,30.46,10,6,1,10,1,13,0.00,7,,228
2013-1-16,30,25,20,25,21,18,92,87,81,30.65,30.57,30.52,5,2,0,8,2,9,T,6,Fog,83
2013-1-17,24,22,20,21,19,16,92,87,81,30.63,30.52,30.36,6,3,0,6,1,7,T,6,Fog-Snow,210
2013-1-18,27,22,17,20,16,13,92,84,75,30.43,30.35,30.29,10,4,0,7,1,7,0.00,4,Fog,58
2013-1-19,33,24,15,23,16,10,88,76,63,30.51,30.44,30.34,10,6,2,8,1,8,0.00,2,Fog,81
2013-1-20,31,25,19,22,18,16,96,83,69,30.58,30.46,30.39,9,2,0,5,0,6,0.00,5,Fog,170
2013-1-21,24,20,16,21,17,12,92,86,80,30.47,30.37,30.27,6,1,0,7,1,8,0.00,8,Fog,77
2013-1-22,26,21,15,20,16,11,92,85,77,30.40,30.30,30.16,9,4,0,7,1,9,0.00,8,Fog,197
2013-1-23,35,28,21,30,24,19,92,81,69,30.21,30.05,29.91,10,6,1,18,3,22,0.14,6,Rain-Snow,138
2013-1-24,35,31,26,29,25,21,85,78,70,30.30,30.22,30.14,10,6,4,10,1,14,0.01,7,Rain,225
2013-1-25,41,37,32,37,32,28,92,87,82,30.18,30.05,29.91,8,3,0,7,1,8,0.37,8,Fog-Rain,295
2013-1-26,38,36,33,36,31,28,92,81,70,29.99,29.92,29.85,10,9,1,13,5,16,0.01,8,Rain,221
2013-1-27,33,31,29,29,26,24,85,80,75,30.04,29.98,29.92,10,8,2,12,5,13,T,8,Snow,238
2013-1-28,34,32,29,29,27,24,85,82,78,29.96,29.90,29.84,10,5,1,16,5,17,0.05,8,Snow,231
2013-1-29,38,34,30,31,28,25,89,77,64,30.22,30.10,29.89,10,6,1,8,2,10,0.11,8,Snow,300
2013-1-30,45,39,33,34,32,30,89,80,70,30.27,30.21,30.14,10,8,2,10,2,14,0.00,6,,231
2013-1-31,44,39,34,36,35,32,92,84,76,30.30,30.24,30.17,10,9,2,12,2,16,0.02,8,Rain,231